Back to catalog

STARLINK-38019

AliveCommunicationsSSO
NORAD 69762·PAYLOAD·🇺🇸 United States

Launched Jul 2, 2026 from Vandenberg Space Force Base

Loading…

Next Passes (next 24 hours)

TLE

FreshSource: CelesTrak SupGP

Epoch: Sep 15, 2026, 03:27 UTC

1 69762C 26150Z   26258.14423611 -.01877700  00000+0 -15971-1 0  2582
2 69762  97.2850  99.5947 0001667  86.3946 336.0681 15.70560852    19

Track STARLINK-38019 in real time with AllMySat

Download on the App Store